Content
SEND FEEDBACK

Daily
Averages
Monthly
Summary
United States of America

GALLATIN GATEWAY, MONTANA


Home > North America > United States > Montana
Elevation: 4817 feet     Latitude: 45 40N     Longitude: 111 09W

WEATHER
 
SELECT A DAY
Number of Records: 189,769;   Date Range: 1/1/95 - 8/28/14
 
SHARE

PRINT THIS DATA

[ ← Previous Day ]
WEATHER ALMANAC - JANUARY 3, 2013
[ Next Day → ]
[ °C ]   °F
Weather ElementAverageHighLow
Temperature4.3 °F21 °F (1:56 pm)-7.1 °F (2:56 am)
Dewpoint-3 °F9 °F (1:56 pm)-13 °F (2:56 am)
Humidity72.3 %83 % (3:56 am)53 % (12:56 pm)
Barometer30.57 in30.65 in (8:56 am)30.45 in (10:56 pm)
Wind Speed2 mph5.8 mph (7:56 am)
Weather ElementAverage
Visibility9.7 mi
Wind DirectionENE (80 °)

Weather ElementTotal
Precipitation---
Heating Degree Days58.1 (Base 65)
Averaged from 23 records on January 3, 2013
WEATHER CONDITIONS BREAKOUT
WIND DIRECTION BREAKOUT
WEATHER BY HOUR - JANUARY 3, 2013
[ °C ]   °F
Local TimeTemperatureDewpointHumidityBarometerVisibilityWind DirectionWind SpeedGust SpeedPrecipitationEventsConditions
1:56 AM-4.0 °F-9.9 °F76 %30.64 in10.0 miSSW (210°)4.6 mphClear
2:56 AM-7.1 °F-13.0 °F75 %30.64 in10.0 miSSE (160°)4.6 mphClear
3:56 AM-4.0 °F-8.0 °F83 %30.61 in10.0 miSSE (150°)4.6 mphClear
4:56 AM-5.1 °F-9.9 °F80 %30.62 in10.0 miCalmClear
5:56 AM-5.1 °F-11.0 °F76 %30.63 in10.0 miSouth (190°)4.6 mphClear
6:56 AM-4.0 °F-9.9 °F76 %30.63 in10.0 miCalmClear
7:56 AM-4.0 °F-9.0 °F79 %30.63 in10.0 miSSW (210°)5.8 mphClear
8:56 AM-2.9 °F-8.0 °F79 %30.65 in10.0 miCalmClear
9:56 AM1.0 °F-4.0 °F79 %30.61 in10.0 miCalmClear
10:56 AM8.1 °F1.0 °F73 %30.61 in10.0 miCalmClear
11:56 AM9.0 °F0.0 °F67 %30.59 in8.0 miEast (100°)3.5 mphClear
12:56 PM10.0 °F-4.0 °F53 %30.56 in10.0 miCalmClear
1:56 PM21.0 °F9.0 °F60 %30.50 in10.0 miSSE (150°)4.6 mphClear
2:56 PM17.1 °F8.1 °F68 %30.52 in10.0 miCalmClear
3:56 PM15.1 °F5.0 °F64 %30.52 in10.0 miCalmClear
4:56 PM12.9 °F3.9 °F67 %30.53 in10.0 miCalmClear
5:56 PM12.0 °F3.0 °F67 %30.53 in10.0 miSSW (200°)3.5 mphClear
6:56 PM9.0 °F1.9 °F73 %30.53 in6.0 miCalmHaze
7:56 PM3.0 °F-4.0 °F73 %30.55 in10.0 miSouth (170°)3.5 mphClear
8:56 PM3.9 °F-2.9 °F73 %30.52 in10.0 miSouth (180°)3.5 mphClear
9:56 PM1.9 °F-5.1 °F72 %30.50 in10.0 miCalmClear
10:56 PM5.0 °F-2.0 °F73 %30.45 in10.0 miCalmClear
11:56 PM5.0 °F-0.9 °F76 %30.45 in9.0 miESE (120°)3.5 mphClear
Hourly data recorded from KBZN, located miles away from Gallatin Gateway, Montana







STORIES FROM OUR PARTNERS